If you wish to contribute or participate in the discussions about articles you are invited to join SKYbrary as a registered user

 Actions

Canberra International Airport

From SKYbrary Wiki

YSCB
Airport
ICAO: YSCB – IATA: CBR
Summary
Name Canberra International Airport
Region Asia and Pacific
Territory Australia AU.gif
Location Canberra, Australian Capital Territory
Serving Canberra
Elevation 575.462 m
1,888 ft
1,888 ft575.462 m
Coordinates 35° 18' 18.84" S, 149° 11' 36.22" E
Runways
Designator Length Width Surface ROPS
12/30 1679 m5,508.53 ft
45 m147.638 ft
ASP yes/yes
17/35 2683 m8,802.493 ft
45 m147.638 ft
ASP yes/yes


METAR
Observation YSCB 190700Z AUTO 34006KT 9999 // NCD 07/02 Q1022
Station Canberra
Date/Time 19 June 2019 07:00:00
Wind direction 340°
Wind speed 06 kts
Lowest cloud amount no clouds detected
Temperature 7°C
Dew point 2°C
Humidity 70%
QNH 1022 hPa
Weather condition n/a

Maps

Terrain

Loading map...

Airport Layout

Loading map...


Accidents & Serious Incidents at or in vicinity of YSCB

None on SKYbrary